Lapse_Rate
7.2 7.0 6.9 6.8 6.6 6.5 6.3 6.2 6.1 6.0 5.9 5.8 5.8 5.8 5.7 5.8 5.7 5.7 5.7 5.8 5.9 6.0 6.0 5.8 5.6 5.4 5.4 5.4 5.4 5.4 5.5 5.7 5.8 5.9 5.9 5.9 5.8 5.9 6.0 6.0 6.2 6.1 6.1
7.0 7.0 6.9 6.8 6.6 6.4 6.3 6.2 6.1 6.0 5.8 5.8 5.7 5.7 5.6 5.6 5.5 5.5 5.6 5.8 5.9 5.9 5.8 5.8 5.6 5.5 5.5 5.5 5.5 5.7 5.7 5.7 5.7 5.8 5.7 5.7 5.8 5.9 5.9 6.0 6.1 6.1 6.2
7.1 7.1 6.9 6.7 6.6 6.4 6.3 6.1 6.0 5.9 5.8 5.7 5.6 5.5 5.4 5.4 5.4 5.5 5.5 5.7 5.8 5.8 5.8 5.7 5.7 5.6 5.6 5.6 5.6 5.5 5.5 5.5 5.5 5.5 5.5 5.6 5.6 5.7 5.8 5.9 5.9 5.9 5.5
7.1 7.0 6.9 6.7 6.5 6.3 6.2 6.1 5.9 5.8 5.6 5.6 5.5 5.4 5.4 5.5 5.5 5.5 5.6 5.6 5.6 5.7 5.7 5.7 5.6 5.5 5.6 5.5 5.4 5.3 5.2 5.3 5.3 5.4 5.4 5.5 5.5 5.6 5.7 5.7 5.7 5.6 5.5
7.1 7.1 6.9 6.6 6.5 6.4 6.2 6.1 5.8 5.7 5.6 5.5 5.4 5.4 5.5 5.5 5.6 5.6 5.6 5.6 5.7 5.6 5.5 5.4 5.4 5.4 5.4 5.3 5.3 5.2 5.1 5.2 5.3 5.3 5.3 5.3 5.5 5.7 5.6 5.5 5.4 5.4 5.4
7.1 7.1 6.9 6.7 6.6 6.4 6.3 6.2 6.1 5.9 5.7 5.6 5.6 5.4 5.4 5.5 5.5 5.5 5.6 5.6 5.6 5.5 5.4 5.4 5.4 5.3 5.3 5.3 5.2 5.1 5.1 5.2 5.3 5.3 5.1 5.3 5.4 5.4 5.4 5.4 5.4 5.3 5.3
7.3 7.2 7.1 7.0 6.8 6.6 6.4 6.3 6.3 6.1 5.9 5.7 5.6 5.5 5.5 5.4 5.4 5.4 5.4 5.4 5.4 5.3 5.3 5.4 5.2 5.2 5.2 5.1 5.0 5.0 5.1 5.2 5.2 5.2 5.1 5.1 5.1 5.3 5.2 5.2 5.2 5.3 5.4
7.3 7.4 7.1 7.1 7.0 6.7 6.5 6.4 6.3 6.2 6.0 5.9 5.7 5.6 5.5 5.4 5.4 5.4 5.3 5.2 5.2 5.1 5.2 5.2 5.1 5.1 5.1 5.1 5.0 5.0 5.1 5.1 5.1 5.2 5.1 5.0 5.1 5.2 5.1 5.2 5.2 5.2 5.3
7.4 7.3 7.2 7.0 7.0 6.9 6.6 6.5 6.3 6.2 6.1 5.9 5.8 5.7 5.6 5.5 5.4 5.3 5.2 5.2 5.2 5.2 5.2 5.1 5.0 5.0 5.0 5.1 5.0 5.1 5.1 5.1 5.1 5.0 5.0 5.0 5.1 5.2 5.2 5.2 5.2 5.3 5.4
7.3 7.3 7.1 7.0 7.0 7.0 6.8 6.6 6.4 6.1 6.0 6.0 6.0 5.8 5.7 5.6 5.4 5.3 5.2 5.2 5.2 5.2 5.1 5.0 5.0 5.1 5.0 5.0 5.0 5.0 5.0 5.0 4.9 4.9 5.0 5.1 5.1 5.2 5.2 5.3 5.4 5.4 5.5
7.0 7.3 7.2 6.9 7.0 6.9 6.8 6.7 6.6 6.3 6.1 6.0 6.0 5.9 5.8 5.7 5.5 5.4 5.3 5.3 5.2 5.2 5.1 5.0 5.1 5.2 5.0 5.0 5.1 5.1 5.1 5.1 5.1 5.1 5.1 5.1 5.2 5.2 5.4 5.4 5.5 5.6 5.6
7.3 7.3 7.5 7.2 7.0 6.9 6.8 6.7 6.6 6.5 6.3 6.2 6.0 5.8 5.7 5.7 5.7 5.7 5.5 5.4 5.3 5.3 5.2 5.2 5.1 5.2 5.2 5.1 5.2 5.3 5.3 5.3 5.3 5.3 5.3 5.2 5.2 5.3 5.4 5.5 5.6 5.7 5.7
7.5 7.5 7.5 7.4 7.2 7.0 6.8 6.8 6.6 6.5 6.4 6.3 6.2 6.0 5.9 5.8 5.7 5.6 5.6 5.5 5.5 5.4 5.4 5.3 5.3 5.3 5.4 5.4 5.4 5.3 5.4 5.4 5.4 5.4 5.4 5.4 5.4 5.5 5.6 5.6 5.7 5.7 5.8
6.8 7.2 7.3 7.5 7.4 7.1 6.9 6.8 6.7 6.5 6.4 6.3 6.2 6.1 6.1 6.0 5.9 5.9 5.8 5.8 5.7 5.6 5.5 5.5 5.4 5.4 5.5 5.6 5.6 5.5 5.4 5.4 5.4 5.4 5.4 5.5 5.5 5.6 5.6 5.6 5.7 5.7 5.8
6.7 7.1 7.4 7.4 7.5 7.3 7.0 6.9 6.7 6.6 6.5 6.3 6.3 6.2 6.1 5.9 5.9 5.9 5.9 5.8 5.8 5.7 5.7 5.7 5.6 5.5 5.5 5.6 5.7 5.7 5.6 5.5 5.5 5.5 5.5 5.6 5.7 5.7 5.7 5.7 5.7 5.8 5.8
6.8 7.0 6.9 7.3 7.3 7.4 7.3 7.1 7.0 6.7 6.5 6.4 6.4 6.3 6.2 6.1 6.0 6.0 6.0 5.9 5.8 5.8 5.9 5.8 5.7 5.6 5.6 5.6 5.6 5.7 5.8 5.8 5.8 5.8 5.8 5.8 5.8 5.8 5.8 5.8 5.8 5.8 5.8
6.6 6.6 6.7 6.7 6.9 7.0 7.1 7.1 7.1 6.7 6.5 6.5 6.4 6.4 6.3 6.2 6.0 6.1 6.0 5.9 5.9 6.0 5.9 5.9 5.8 5.8 5.7 5.7 5.6 5.7 5.8 5.9 6.0 6.0 5.9 5.9 5.9 5.8 5.8 5.9 6.0 5.9 5.8
6.2 6.5 6.2 6.3 6.8 6.9 7.0 6.9 6.8 6.7 6.7 6.6 6.6 6.7 6.5 6.3 6.2 6.2 6.1 5.9 6.0 6.0 5.8 5.8 5.8 5.8 5.7 5.7 5.7 5.7 5.8 5.9 5.8 5.8 5.8 5.8 5.8 5.8 5.8 5.8 5.8 5.9 5.9
6.0 5.9 6.5 6.4 6.5 6.8 6.8 6.9 7.0 6.8 6.9 6.7 6.8 6.8 6.5 6.3 6.4 6.3 6.1 6.0 6.1 5.9 5.8 5.8 5.9 5.9 5.9 5.8 5.8 5.8 5.8 5.8 5.8 5.9 5.8 5.7 5.8 5.7 5.7 5.7 5.8 5.9 5.9
5.8 5.6 6.2 6.5 6.3 6.5 6.8 6.6 6.8 6.8 6.8 6.8 6.8 6.7 6.5 6.4 6.4 6.2 6.1 6.0 6.1 5.9 5.9 6.0 6.0 6.0 5.9 5.8 6.0 6.0 6.0 5.9 6.0 5.9 5.7 5.7 5.7 5.7 5.9 5.9 5.9 6.0 6.0
6.0 6.0 6.3 6.5 6.6 6.5 6.3 6.8 7.0 7.2 7.1 7.0 6.8 6.6 6.4 6.5 6.5 6.5 6.3 6.1 5.9 6.0 6.0 6.2 6.1 6.0 5.9 5.8 5.9 5.9 6.0 6.1 6.0 5.8 5.8 5.8 5.7 5.7 5.8 5.9 5.9 6.0 6.0
5.9 6.3 6.5 6.4 6.4 6.4 6.5 6.4 6.5 6.6 6.7 6.7 6.6 6.5 6.7 6.8 6.6 6.5 6.2 6.0 6.0 6.1 6.1 6.0 5.9 5.9 5.8 5.8 5.8 5.7 5.9 6.0 5.9 5.8 5.8 5.8 5.8 5.8 5.7 5.8 5.8 5.9 5.9
6.5 6.1 6.6 7.0 6.9 6.6 6.7 6.5 6.6 6.6 6.7 7.2 7.0 7.0 7.0 6.6 6.4 6.3 6.3 6.2 6.1 6.1 6.1 6.1 6.0 5.9 5.8 5.7 5.7 5.6 5.4 5.6 5.8 6.0 6.0 5.9 5.8 5.8 5.9 5.8 5.8 5.7 5.7
7.1 7.2 7.2 7.1 7.1 7.1 7.1 6.8 6.9 6.8 6.9 7.1 6.9 6.9 6.5 6.1 6.4 6.3 6.4 6.3 6.2 6.2 6.4 6.3 6.1 6.1 6.0 5.8 5.6 5.5 5.4 5.3 5.2 5.3 6.0 6.1 6.1 6.0 5.9 5.9 5.7 5.7 5.8
7.2 7.2 7.3 7.3 7.3 7.4 7.8 7.8 7.4 7.3 7.2 7.0 7.1 7.1 6.7 6.4 6.6 6.2 6.2 6.3 6.3 6.2 6.1 6.2 6.2 6.2 5.9 5.7 5.6 5.5 5.5 5.5 5.4 5.3 5.1 5.1 5.2 5.6 5.7 5.6 5.4 5.4 5.3
7.1 7.1 7.0 6.8 7.1 7.3 7.3 7.5 7.4 7.1 7.1 7.2 7.1 7.0 6.7 6.6 6.5 6.5 6.5 6.4 6.2 6.3 6.2 6.1 6.2 6.0 5.8 5.7 5.7 5.7 5.6 5.4 5.7 5.4 5.4 5.2 5.2 5.2 5.3 5.4 5.4 5.4 5.5
Wind_Speed
6 15 23 23 22 22 22 22 22 21 21 22 21 21 20 19 19 18 17 17 16 15 15 15 14 16 16 18 18 17 16 15 14 18 19 18 16 15 13 13 11 10 11
12 20 25 24 22 22 22 22 21 20 20 20 21 20 19 18 18 17 16 16 16 16 15 16 16 17 19 18 18 17 16 14 13 15 17 16 13 12 12 12 10 9 8
15 20 23 24 23 22 22 21 21 20 20 20 20 19 18 17 16 16 16 16 15 16 16 16 17 18 18 17 16 16 14 13 12 13 13 11 10 11 11 10 9 7 10
15 19 20 25 23 22 21 20 20 20 19 19 18 18 17 17 16 16 16 15 16 16 17 17 18 17 15 13 12 12 13 13 12 11 10 6 4 9 11 11 16 18 20
14 17 19 24 23 22 21 20 20 19 18 18 17 17 17 16 15 17 16 16 16 16 16 18 17 15 13 12 13 12 10 10 9 8 7 6 12 16 13 13 16 17 16
11 14 19 22 22 21 21 20 19 18 19 18 20 19 15 14 15 18 17 17 16 15 17 16 15 13 13 12 13 13 13 12 12 12 10 13 14 15 14 14 14 14 14
11 13 19 21 22 21 20 19 18 17 17 16 18 17 15 14 13 18 17 17 15 15 16 16 13 12 13 13 12 13 14 13 15 14 11 12 10 9 9 10 10 10 10
13 13 16 21 22 20 19 18 16 14 13 18 17 16 15 14 14 18 17 16 15 14 14 14 12 11 11 11 11 13 13 12 12 12 11 11 10 10 10 10 10 9 10
11 11 12 16 20 21 19 18 17 16 16 18 16 15 16 14 14 18 16 15 14 13 12 11 9 9 10 9 8 12 11 11 11 9 9 8 8 9 9 9 9 9 9
9 8 10 12 15 15 16 20 19 18 18 17 16 14 14 16 14 18 16 13 13 12 11 9 8 8 8 8 8 11 11 10 8 7 7 7 7 7 7 8 8 8 8
9 10 10 11 13 13 13 16 18 17 16 16 15 15 16 14 12 17 15 13 12 12 10 8 7 7 7 8 9 10 9 6 6 5 5 5 6 5 6 6 6 7 7
16 11 11 12 12 14 11 13 14 14 14 14 14 15 17 16 12 14 13 13 11 10 9 7 6 7 7 6 6 6 4 5 4 4 4 4 4 4 4 5 5 6 6
12 9 10 11 14 14 11 10 11 12 12 12 13 13 16 15 15 15 11 9 9 8 6 5 5 4 6 5 3 2 1 5 4 4 3 4 3 3 3 4 4 4 5
13 14 10 10 9 14 13 10 10 9 10 10 13 12 12 9 9 9 10 12 11 8 6 5 4 4 3 5 4 2 2 4 5 5 5 5 4 4 3 3 3 3 3
13 13 12 11 10 11 10 11 9 8 9 11 13 13 14 10 6 9 9 9 9 9 8 6 5 4 3 2 3 3 4 5 6 8 8 8 7 6 5 4 3 3 2
13 15 13 11 9 12 9 10 9 10 10 12 13 15 16 14 11 9 7 7 9 10 9 8 6 5 4 3 4 4 5 7 7 9 11 10 10 9 7 5 4 3 3
11 12 13 12 10 10 12 10 11 11 11 10 12 15 17 16 14 11 8 7 11 13 10 7 4 3 2 3 4 5 6 7 9 10 13 12 11 12 10 8 7 6 5
8 13 14 11 12 12 11 10 10 12 10 10 12 14 17 16 17 12 7 7 12 12 10 5 3 3 3 3 3 4 5 6 9 10 12 14 13 13 13 12 9 9 8
10 10 11 13 13 12 10 8 9 11 10 11 11 12 15 16 17 13 9 10 13 9 7 4 3 3 3 3 4 4 4 4 6 8 11 14 16 15 14 14 13 11 10
7 8 9 9 11 11 7 4 3 4 6 9 10 12 14 14 17 15 10 10 12 4 4 3 4 3 3 3 3 4 3 5 6 7 9 12 15 16 17 15 14 13 13
6 6 10 11 8 8 4 6 4 6 4 3 8 14 14 15 16 14 9 8 10 6 6 6 3 5 3 2 1 2 3 5 5 4 9 9 9 13 15 16 15 14 14
8 9 6 8 10 9 7 4 3 3 3 3 6 10 14 14 15 14 11 6 7 5 6 6 5 3 3 4 3 2 3 3 2 4 3 3 6 9 10 14 16 17 17
8 8 9 9 9 8 7 5 3 2 2 2 2 4 7 16 15 14 12 9 6 5 6 6 7 7 4 4 5 3 1 4 1 2 2 4 5 4 12 16 18 19 18
8 6 7 7 8 8 8 7 7 4 6 3 4 3 3 8 9 13 13 12 7 5 5 5 5 5 4 4 2 6 3 3 4 3 2 3 1 2 2 2 5 8 9
3 6 5 6 6 6 9 8 7 5 3 2 2 4 5 5 7 7 11 10 7 5 6 6 5 7 6 5 4 2 5 2 2 4 6 3 1 1 2 1 3 4 6
2 3 5 7 4 5 7 6 6 5 4 2 1 3 3 3 3 7 8 7 7 5 7 7 7 8 8 7 6 5 5 3 3 4 6 6 3 1 0 2 3 3 2
Wind_Direction
180 163 160 150 147 142 136 131 128 126 123 121 118 115 112 109 108 103 101 100 99 98 100 97 95 97 98 97 96 96 95 92 82 71 77 84 81 83 80 77 72 70 68
153 158 158 152 150 146 140 135 131 129 127 124 122 118 116 113 112 109 105 102 101 101 100 100 102 102 99 97 97 98 99 97 83 72 74 73 79 83 82 80 77 77 79
150 156 156 153 151 150 143 139 136 134 132 130 126 124 123 121 119 118 110 104 103 104 103 104 106 105 102 100 101 101 98 100 92 84 83 83 91 91 89 82 70 71 62
147 156 155 151 153 151 146 142 140 137 136 133 131 132 133 131 129 122 116 108 108 108 109 110 110 107 104 103 106 108 105 106 96 94 91 94 110 116 95 77 78 71 63
147 152 155 150 155 151 145 146 141 140 137 136 135 136 135 137 134 130 121 115 113 114 117 115 112 107 102 96 102 107 116 108 101 101 98 65 73 99 84 73 71 66 65
135 147 155 153 150 151 149 146 147 145 146 147 143 134 132 135 141 133 127 121 119 123 123 122 117 111 97 100 101 101 108 103 95 109 88 74 69 83 78 73 72 70 57
136 146 152 154 147 148 146 147 148 155 154 150 137 135 142 142 133 137 132 126 128 128 130 127 124 113 100 98 98 108 113 107 99 92 81 72 72 73 68 56 52 49 52
143 142 152 153 148 148 148 149 150 142 149 145 136 142 146 149 142 142 137 135 134 135 133 132 130 116 105 101 103 116 117 109 96 87 80 82 82 79 75 69 68 68 67
139 140 146 146 148 147 144 139 132 130 134 135 141 144 145 145 146 147 146 142 141 138 134 132 131 116 108 99 108 130 123 113 103 96 93 84 84 85 84 80 75 71 67
134 137 133 140 141 141 145 145 143 141 139 140 140 143 147 143 153 149 149 148 146 140 133 131 126 113 106 91 102 135 130 120 108 105 103 92 91 90 89 85 81 77 73
150 150 145 139 144 142 142 151 151 151 149 146 144 147 143 142 155 150 155 153 148 138 139 138 130 117 110 97 102 123 131 123 122 115 117 116 103 101 101 95 87 86 84
169 170 159 160 155 155 146 141 146 149 152 152 152 153 154 151 153 151 155 155 148 144 146 146 142 125 116 111 105 108 128 155 146 141 151 149 129 119 111 108 101 91 89
171 165 170 166 156 163 146 138 143 152 153 153 155 150 144 149 152 152 152 151 146 153 152 144 137 138 130 136 129 119 121 194 181 181 185 195 173 149 142 130 114 103 97
179 177 169 166 157 171 154 157 158 155 159 158 163 160 150 143 147 153 158 163 166 173 170 172 173 179 174 144 161 192 209 195 209 214 220 218 211 186 173 156 137 122 111
181 180 171 169 170 174 162 161 158 158 167 170 168 170 168 156 155 162 165 171 181 180 186 192 193 204 234 223 180 212 227 235 241 239 236 229 225 217 202 189 175 162 146
194 190 180 174 175 176 169 166 169 169 174 170 176 183 185 177 171 172 170 182 196 201 205 201 205 208 230 242 238 223 250 260 263 239 234 236 228 227 219 216 209 204 197
185 177 187 181 183 182 184 175 178 179 166 170 184 190 192 191 187 181 179 187 205 210 214 209 212 223 240 247 255 248 250 261 249 242 233 233 231 230 225 228 224 222 221
186 183 175 176 178 183 189 187 185 186 178 182 183 189 198 197 196 184 182 198 206 206 206 197 188 215 235 225 245 252 252 253 252 242 236 231 231 231 230 229 230 227 225
173 192 182 177 178 177 182 174 180 182 187 183 185 192 199 197 198 190 194 204 201 198 197 192 192 185 211 234 243 260 259 254 252 243 238 237 234 234 236 234 232 233 227
181 181 185 179 175 178 172 149 153 163 190 183 189 196 196 198 197 197 197 199 192 181 192 174 194 194 202 228 251 267 275 253 242 233 235 240 238 238 238 239 238 235 232
188 182 190 177 169 167 169 178 185 199 195 191 195 198 194 200 198 194 200 195 187 191 201 193 176 192 217 183 62 315 287 245 237 230 233 235 235 238 241 241 242 242 241
185 195 196 199 179 186 188 193 180 172 198 188 204 207 199 197 195 195 198 200 189 186 192 186 176 179 206 183 164 97 310 324 293 252 220 222 227 232 235 242 243 242 240
202 197 195 194 186 186 172 163 102 97 86 141 202 211 202 200 201 201 198 193 191 192 204 190 185 185 204 200 202 160 135 233 324 305 256 231 215 199 218 224 228 232 233
228 197 183 177 179 188 172 195 182 187 194 194 187 186 214 207 199 202 201 202 195 192 195 199 185 197 160 205 202 236 251 159 202 286 258 253 214 292 332 307 273 258 249
200 214 181 162 165 163 181 195 195 205 184 173 160 187 217 223 208 205 209 201 205 211 227 191 181 202 206 215 202 161 210 190 242 227 265 249 357 192 163 165 232 249 226
154 159 156 147 138 156 166 177 196 201 191 172 164 223 230 226 217 218 218 212 212 203 210 219 205 197 210 211 213 199 198 189 192 202 237 248 226 268 228 2 23 10 251